GFSSE_sfc_dewp_054.txt.gz
Dewpoint
68 69 70 71 71 70 70 69 69 69 68 67 66 66 66 66 67 66 65 65 65 63 63 63 64 64 65 67 66 66 66 67 67 66 64 63 63 63 63 62 62 59 62
68 70 70 70 70 70 70 69 68 67 67 65 66 66 67 67 66 65 65 65 65 63 63 66 66 66 65 67 67 66 65 66 65 64 62 61 61 61 61 61 62 59 61
68 69 69 70 70 70 69 69 68 67 66 64 65 66 67 66 65 65 65 64 64 63 64 66 65 65 66 67 65 64 63 63 64 63 62 59 58 61 62 62 61 61 61
69 69 69 70 70 69 69 67 67 66 66 65 65 65 66 66 65 65 65 63 64 63 62 64 66 66 66 65 65 63 63 63 63 61 58 58 57 61 61 62 62 62 62
68 69 69 69 69 69 68 67 66 66 66 66 66 65 64 65 65 65 64 63 63 63 60 61 62 61 63 64 64 62 62 61 61 58 58 57 57 59 61 61 62 62 62
68 69 68 68 68 68 68 67 67 67 66 66 66 66 64 64 64 65 64 63 63 62 60 60 60 61 62 62 62 61 60 59 57 55 56 58 57 59 60 60 60 60 61
66 68 67 67 68 68 68 67 67 67 66 66 66 65 65 65 65 65 64 63 63 62 61 60 60 61 61 62 60 59 59 58 52 53 54 56 56 58 58 57 57 57 58
64 64 67 68 67 67 67 66 66 66 66 66 66 65 65 65 65 65 64 63 63 62 62 62 62 61 61 59 60 59 58 55 51 53 54 55 57 57 57 56 56 56 56
62 61 63 64 63 66 66 66 66 66 66 66 66 65 65 65 65 64 63 63 62 62 63 62 61 60 60 59 58 58 57 54 49 52 53 54 56 55 55 54 54 53 53
60 59 60 61 63 63 63 65 66 66 65 65 65 65 65 65 65 64 63 62 62 62 61 60 60 60 59 58 55 52 53 52 48 50 52 55 54 54 54 53 52 51 51
60 60 62 59 58 63 62 64 65 65 65 65 64 64 62 61 60 59 62 61 62 60 59 58 55 54 54 54 51 47 44 40 45 49 50 58 53 52 52 51 51 50 50
57 58 59 60 63 62 61 61 62 63 62 61 61 60 59 58 58 60 61 61 60 58 57 54 51 49 44 39 38 40 36 38 43 48 51 54 47 50 51 50 50 49 49
54 55 56 56 61 61 61 60 60 60 59 59 59 59 60 58 58 58 56 53 50 49 43 42 39 38 39 39 38 36 36 36 37 36 42 49 48 44 49 47 49 48 48
53 52 56 58 60 61 60 59 59 58 58 58 58 59 60 57 57 55 52 49 46 44 42 41 40 38 37 38 36 36 36 35 35 35 36 48 48 44 48 45 46 46 46
56 57 59 60 60 59 59 58 58 58 58 58 59 59 60 58 56 54 49 47 43 42 40 38 38 37 36 36 36 36 35 35 36 36 37 48 48 46 46 44 43 45 43
56 58 61 60 60 58 58 57 58 59 59 60 60 60 60 58 54 51 47 44 42 40 38 37 37 37 36 36 36 35 35 34 34 36 40 48 53 51 45 43 42 42 41
57 60 61 60 57 57 57 58 58 60 60 59 58 58 57 55 51 50 45 43 40 39 38 38 38 38 37 35 35 35 35 35 34 35 36 39 43 48 46 42 43 41 40
58 59 60 59 57 57 57 57 58 58 58 57 56 55 53 54 51 48 45 42 42 40 39 39 38 37 38 36 35 34 34 35 33 33 33 35 36 38 43 40 37 36 35
58 58 58 57 56 56 56 56 56 56 56 56 54 55 52 50 48 46 45 43 42 43 40 39 39 38 36 37 36 35 35 34 34 30 32 32 33 34 35 36 40 40 41
56 56 58 57 56 55 54 54 54 54 54 54 53 51 49 48 46 45 44 42 42 40 39 39 38 38 38 37 36 35 36 35 34 33 32 31 32 33 32 33 33 31 38
54 57 58 56 55 56 56 54 52 52 52 51 52 51 49 46 44 44 42 41 40 39 39 38 38 37 38 38 36 36 35 35 34 33 33 32 33 33 33 33 31 30 31
54 57 57 56 56 56 56 52 52 51 51 51 52 49 48 46 44 42 42 40 39 40 39 39 38 38 38 38 34 34 30 32 33 34 35 33 34 33 32 32 31 31 30
54 57 57 56 56 56 55 52 50 51 50 49 47 47 48 46 44 42 41 40 40 40 39 39 38 36 34 35 36 30 23 25 32 34 33 34 33 34 32 33 32 31 31
53 56 57 57 56 56 54 52 50 50 49 48 47 47 47 45 45 42 40 40 40 40 40 37 36 36 33 31 33 36 34 33 31 31 33 33 33 33 35 35 33 31 32
54 56 57 57 56 56 54 53 52 51 51 50 49 46 47 44 43 41 41 41 40 38 36 35 34 34 34 33 33 33 34 34 33 33 32 32 34 35 35 35 33 32 30
54 55 56 56 56 56 55 53 52 51 51 50 47 46 45 43 42 41 40 38 37 36 35 35 34 34 34 34 34 35 34 34 34 33 31 32 31 33 34 33 32 30 28

GFSSE_sfc_dewp_057.txt.gz
Dewpoint
67 68 70 71 71 70 70 70 69 68 68 68 67 67 67 67 67 66 66 66 66 65 65 66 67 67 66 65 65 66 65 65 65 64 62 61 62 62 62 62 62 58 62
68 67 70 70 70 70 70 69 68 67 67 67 67 67 67 66 66 66 66 66 67 67 67 66 67 67 65 64 64 65 64 65 65 64 62 61 62 62 62 62 62 59 62
68 67 68 70 70 70 69 68 68 67 66 66 67 67 66 66 66 66 66 66 68 67 67 66 67 67 63 63 64 64 63 63 63 63 62 55 57 62 62 62 62 61 61
68 67 67 69 69 69 68 68 67 66 67 67 67 67 66 66 66 66 65 65 68 68 67 66 68 64 63 64 64 63 63 62 62 62 55 55 55 61 61 62 62 62 61
67 67 67 69 68 68 67 67 66 66 67 67 67 66 67 66 65 65 64 64 65 66 66 66 64 62 63 64 64 63 62 61 61 57 54 56 55 58 60 60 59 61 61
67 68 67 68 68 67 67 67 66 66 66 66 66 66 66 66 65 64 64 64 64 64 62 61 61 61 63 63 62 61 60 59 59 53 54 56 55 58 58 58 59 59 59
66 67 68 67 67 67 67 67 66 66 66 66 66 66 66 65 65 64 64 64 63 63 63 62 61 62 62 61 61 60 59 58 52 52 52 53 55 57 57 56 56 57 57
64 66 66 67 67 65 66 67 66 66 66 66 65 65 66 65 65 64 64 63 63 63 62 61 61 62 62 61 58 58 57 57 50 50 51 52 56 56 55 54 54 54 55
62 61 60 60 61 61 62 66 66 66 66 65 66 66 66 65 64 63 63 63 63 62 62 62 62 61 59 58 57 57 57 55 49 50 49 50 55 54 54 53 52 52 52
62 61 60 59 58 59 61 65 66 66 66 65 65 65 65 64 64 64 62 63 63 63 62 60 61 59 55 55 54 52 52 53 46 47 49 50 54 54 53 52 51 51 52
59 58 59 57 57 58 63 64 65 66 65 64 64 64 62 58 57 56 62 62 61 61 59 57 56 55 54 52 49 49 50 46 45 46 46 57 53 52 52 52 50 50 50
58 57 57 57 54 52 53 59 64 64 62 62 62 61 58 59 58 56 60 60 59 58 57 53 50 47 44 37 37 41 37 39 36 37 42 53 48 51 50 51 50 49 49
57 54 52 53 56 59 59 61 62 61 60 61 61 60 59 60 59 58 56 52 51 49 41 42 40 39 41 38 38 39 38 36 35 34 37 49 50 47 49 49 49 48 48
55 52 58 60 61 61 60 60 60 59 59 58 60 61 60 58 59 57 51 49 47 44 44 42 41 43 41 41 40 40 39 35 34 34 36 49 48 47 48 45 49 46 45
52 53 55 59 61 61 60 59 59 60 58 61 61 62 61 58 59 54 50 47 45 43 42 41 40 39 40 39 39 38 37 38 38 38 44 54 53 48 46 45 45 44 43
51 52 55 57 61 60 59 59 59 60 60 60 60 61 61 58 57 51 48 45 43 41 40 39 39 38 38 38 38 38 38 36 37 43 46 48 52 49 46 43 42 41 41
51 53 56 58 61 61 59 59 58 58 59 59 59 61 62 59 57 53 48 45 42 42 43 42 41 41 38 36 38 38 37 37 36 39 43 45 44 50 46 44 41 39 39
52 55 58 59 61 61 60 59 58 59 60 61 61 62 62 59 57 53 48 44 43 43 42 42 40 39 39 38 38 37 38 37 35 36 35 38 39 38 40 42 41 41 40
56 57 60 61 61 60 60 59 61 61 62 62 61 60 59 57 55 52 47 44 45 43 43 41 41 41 39 39 37 39 40 37 35 30 34 35 37 36 34 34 38 37 40
57 58 60 61 61 60 60 60 60 61 61 60 59 58 56 55 52 50 46 46 44 42 43 42 43 42 41 41 35 37 40 39 36 35 36 34 35 37 36 35 35 32 35
58 59 60 60 60 59 57 57 57 58 59 59 57 56 54 52 50 49 44 45 44 43 43 44 43 43 41 42 39 37 38 39 38 35 37 37 35 37 37 35 33 31 29
57 59 59 59 59 58 57 57 57 57 58 57 57 55 53 51 48 47 46 44 43 43 44 44 44 41 42 41 35 34 29 31 35 37 36 36 39 36 36 35 36 34 32
57 58 58 58 58 58 57 56 55 56 55 54 54 54 52 49 47 46 46 44 44 44 43 44 44 42 38 38 39 30 24 21 29 33 37 36 38 38 36 36 36 36 34
56 58 58 58 58 58 57 56 55 55 55 55 55 54 52 49 47 44 44 44 45 44 44 43 40 40 37 32 36 36 37 32 24 24 33 36 37 36 37 35 34 36 34
57 58 59 59 58 58 57 57 57 56 57 54 53 52 52 50 47 44 44 45 45 44 44 41 40 39 36 34 32 34 35 35 36 31 25 30 34 33 32 33 34 34 32
57 58 59 58 57 58 57 57 56 56 55 53 53 52 50 48 47 46 43 44 45 43 41 40 39 38 38 36 36 37 35 31 29 31 30 30 30 30 32 32 33 34 30

GFSSE_sfc_dewp_060.txt.gz
Dewpoint
66 65 70 71 71 71 71 71 70 70 69 68 68 68 68 67 67 67 67 67 68 69 68 68 68 66 65 65 65 64 64 65 65 64 63 63 63 63 63 63 63 58 62
66 65 70 71 71 71 71 70 69 68 68 68 68 68 67 67 67 67 67 68 68 68 68 67 66 63 63 63 63 64 64 64 65 64 64 62 62 62 63 62 63 60 62
66 64 68 70 70 70 70 69 68 68 68 68 68 67 67 67 67 67 68 69 68 68 68 66 63 63 63 64 64 63 63 63 64 63 63 52 57 62 62 62 63 62 62
66 65 64 70 69 69 68 68 68 68 68 68 67 67 67 67 67 68 69 68 69 68 68 64 63 63 64 64 63 63 62 61 62 63 52 51 52 60 61 61 62 63 62
66 66 67 69 69 68 68 67 67 67 67 67 67 67 67 67 66 68 68 68 68 69 67 63 63 63 63 64 63 62 61 61 61 55 50 53 52 57 59 59 58 59 59
67 67 68 68 68 68 68 67 67 67 66 66 66 66 66 66 66 66 66 67 68 68 63 62 62 61 63 63 62 60 60 59 60 48 50 55 54 57 57 58 58 58 58
65 68 68 67 67 67 67 67 67 67 66 66 66 66 66 66 66 65 65 65 65 64 62 61 60 61 62 62 60 60 59 58 46 46 49 51 55 56 55 55 56 56 56
61 62 67 67 66 65 64 64 66 66 66 66 65 65 65 65 65 65 64 64 64 64 64 63 62 61 60 59 58 58 58 58 47 46 49 51 55 54 54 54 54 54 54
61 60 60 59 61 60 62 62 63 65 66 66 65 65 65 65 64 64 64 63 63 62 62 61 61 61 59 57 57 57 57 55 45 45 45 49 55 54 53 53 53 53 53
60 59 59 57 57 57 57 61 64 66 66 66 65 65 64 64 64 64 63 63 63 63 61 59 59 58 57 55 53 53 54 52 41 41 45 50 54 53 52 52 52 52 52
59 58 58 56 56 57 58 62 64 65 65 64 63 63 59 55 55 56 61 63 62 61 60 57 55 54 53 52 50 52 51 38 38 39 42 56 53 53 52 51 51 50 51
58 58 57 57 57 56 57 59 62 62 60 60 58 58 53 56 54 55 59 61 60 59 56 53 51 52 48 38 37 43 34 35 32 32 39 51 50 52 51 50 50 49 49
57 55 56 56 55 56 57 58 58 60 60 60 60 57 58 56 57 55 54 52 52 53 44 44 44 42 43 39 37 37 36 34 31 29 38 50 50 52 50 50 49 48 47
54 54 53 52 54 55 54 54 55 54 57 56 57 58 58 55 57 56 52 52 50 48 48 46 44 45 42 40 40 39 38 33 31 30 40 50 48 49 48 48 48 47 45
51 52 53 60 60 57 56 55 55 56 56 56 57 58 57 56 57 55 53 50 49 48 46 45 43 40 40 39 38 36 36 36 36 36 43 54 52 51 46 45 47 43 43
51 55 57 56 57 55 55 58 57 55 55 57 56 57 59 57 58 55 53 50 48 47 45 43 41 39 37 37 37 37 36 33 37 40 39 46 52 51 46 44 43 42 42
51 52 55 54 57 57 55 57 55 54 54 53 56 61 59 58 58 56 53 50 48 46 46 44 42 40 37 33 35 36 34 36 35 36 39 41 44 50 46 44 41 40 40
50 52 54 53 57 58 56 55 54 54 54 54 57 61 63 59 59 56 53 50 48 46 44 43 42 39 38 36 38 37 37 36 36 36 37 40 38 28 42 41 39 39 39
50 51 53 54 55 59 59 55 56 57 55 55 58 60 63 63 60 57 53 51 49 46 44 43 42 41 39 38 36 39 40 37 35 29 34 36 37 33 29 38 35 35 38
52 53 54 55 57 61 60 59 55 56 55 57 59 60 62 61 60 58 54 51 48 45 45 44 44 42 41 42 34 36 40 38 35 35 34 32 34 35 35 34 33 33 34
53 54 56 57 59 61 59 55 53 54 55 56 58 61 61 60 59 58 53 50 47 46 46 47 45 45 42 44 41 38 38 38 39 35 35 34 34 34 37 34 34 31 31
54 55 56 57 59 59 57 54 52 53 55 55 58 60 60 59 58 56 52 48 47 46 48 47 46 43 43 43 39 36 36 35 36 36 35 33 37 34 33 35 37 37 36
55 56 55 56 58 59 58 55 53 54 56 56 57 60 59 57 55 53 51 48 48 47 46 47 46 45 42 41 39 34 35 33 31 32 34 33 35 35 35 35 35 33 35
56 56 56 56 57 58 59 56 55 51 50 54 57 59 58 56 54 52 49 48 50 46 46 47 45 45 42 38 37 35 36 33 28 26 29 32 36 35 36 35 32 32 34
56 57 58 56 57 58 59 58 56 54 50 54 58 58 57 55 52 48 48 49 49 46 48 47 46 44 38 36 38 35 35 33 33 29 24 23 28 30 30 32 32 32 33
56 58 59 58 57 58 59 60 59 58 56 57 57 57 56 55 52 50 46 48 48 47 47 46 45 41 37 40 40 36 32 28 26 26 26 27 27 28 30 31 31 30 30

GFSSE_sfc_dewp_063.txt.gz
Dewpoint
63 65 71 72 72 72 71 71 70 70 69 69 68 68 68 68 68 68 70 70 70 70 68 66 66 65 64 64 64 64 64 66 65 65 64 63 63 63 63 65 62 59 63
64 65 70 71 71 71 71 71 70 69 69 68 68 68 68 68 68 68 69 70 70 69 65 64 64 63 63 63 64 63 63 64 65 65 64 62 62 62 63 63 64 60 62
65 64 68 70 71 71 71 70 69 69 69 68 68 68 68 68 68 68 69 69 69 68 64 63 63 64 64 64 63 62 62 63 62 62 63 52 57 62 63 63 63 62 63
65 65 66 70 70 71 70 69 69 69 68 68 68 68 68 68 69 70 69 69 69 67 63 63 64 63 63 63 63 62 61 61 61 61 51 49 52 61 60 60 60 60 61
66 66 68 69 70 70 69 68 68 68 68 67 67 68 68 70 70 70 69 68 68 66 63 64 63 63 63 64 63 62 61 61 61 53 50 51 51 57 59 59 58 59 59
67 66 68 68 68 68 68 68 68 67 67 67 67 68 68 69 69 69 68 68 68 65 63 62 62 62 62 63 61 59 60 59 61 48 50 53 52 56 57 58 57 57 57
65 64 68 67 68 68 68 68 67 67 67 66 67 67 67 68 68 68 68 67 65 64 62 61 61 61 61 61 59 59 60 59 45 48 49 51 53 55 56 55 55 56 56
64 64 66 66 65 65 66 66 66 66 66 66 66 66 66 66 66 66 66 65 64 64 63 62 61 59 59 58 58 58 58 58 46 48 50 50 54 54 55 54 54 54 54
62 64 62 62 61 61 61 62 63 64 65 66 66 66 65 65 64 65 65 65 64 64 63 61 60 60 57 57 56 56 55 55 45 46 47 50 54 53 53 53 54 53 53
59 60 60 60 59 58 58 60 61 63 66 66 65 64 64 64 64 64 63 63 63 62 61 59 59 58 55 54 53 54 52 54 41 42 47 51 53 53 52 53 53 52 52
59 58 58 57 57 58 59 60 63 64 65 64 64 62 60 59 56 56 62 63 63 62 59 57 56 55 55 53 53 51 52 36 35 39 47 56 53 53 52 51 51 51 50
56 57 58 58 58 57 55 58 61 61 61 59 58 59 56 58 57 58 61 62 61 59 57 56 54 55 52 38 37 46 35 35 32 33 44 52 53 53 51 51 50 49 48
57 56 56 57 57 56 57 57 60 60 59 58 59 58 59 58 59 58 57 53 54 54 44 44 45 45 44 39 38 39 36 34 31 29 41 50 51 52 52 50 48 48 46
55 56 57 57 57 57 57 59 58 59 59 57 56 61 60 58 59 57 53 52 52 49 48 49 47 47 44 41 41 40 38 34 32 31 45 49 48 51 49 51 48 46 45
55 55 56 57 58 58 56 55 55 56 55 57 56 59 60 58 60 56 55 53 52 50 50 49 47 43 42 40 38 37 36 37 37 38 44 55 52 52 47 46 48 43 43
53 53 54 56 56 54 53 54 54 54 53 56 56 58 61 59 60 55 56 52 51 51 49 48 46 43 40 40 38 37 36 34 38 40 41 46 53 52 47 44 43 43 42
53 56 57 55 57 57 56 56 54 53 52 54 54 58 59 59 59 58 55 53 52 51 51 48 46 43 40 36 37 36 35 36 35 36 37 44 46 51 48 44 42 41 42
53 53 52 49 54 56 55 55 52 51 54 55 55 57 59 57 59 58 55 54 55 51 49 48 45 44 40 38 37 36 38 36 36 36 37 39 39 34 46 44 38 37 37
50 52 53 53 54 53 54 54 55 59 54 52 54 56 60 58 59 57 55 55 54 50 49 48 47 46 41 39 38 39 41 39 37 31 34 36 37 33 30 41 39 37 36
50 52 52 52 54 55 57 55 52 53 52 52 53 54 59 62 61 59 56 56 53 50 48 48 49 45 43 41 34 36 42 41 39 37 36 34 35 36 35 36 35 35 38
52 52 52 52 53 55 54 52 50 50 51 52 53 56 59 61 61 61 57 56 53 50 50 51 49 47 43 44 42 42 41 42 41 38 38 36 35 35 36 35 36 33 34
51 52 52 51 52 54 54 53 50 48 49 50 52 56 60 61 61 59 59 55 54 50 52 52 50 46 45 45 43 41 39 39 39 39 38 37 39 36 35 34 36 37 35
51 52 52 53 53 54 54 53 49 49 50 51 51 54 60 61 59 59 59 56 55 52 51 53 50 47 44 45 43 40 39 37 38 38 39 37 38 36 36 35 36 34 34
53 53 53 53 53 54 56 53 52 47 46 49 52 53 58 59 58 57 57 55 53 52 52 51 50 49 47 44 43 37 39 41 36 35 35 34 35 36 39 37 35 34 32
55 55 55 53 53 54 55 56 54 52 50 50 52 55 59 60 58 57 56 55 53 51 52 52 52 49 46 43 40 38 43 41 40 34 32 32 30 31 32 33 33 34 32
53 56 56 55 54 55 56 57 57 56 55 50 51 56 59 58 57 56 53 54 54 52 52 51 52 49 43 40 41 38 38 37 31 33 31 30 28 30 30 30 33 32 31

GFSSE_sfc_dewp_066.txt.gz
Dewpoint
65 68 71 71 72 71 71 71 70 70 70 70 69 69 69 69 69 69 70 70 70 69 66 66 65 64 64 64 64 64 66 66 65 65 64 63 63 64 64 64 63 59 63
64 68 71 71 71 71 71 71 70 69 69 69 69 69 69 69 70 70 70 70 68 67 65 64 64 64 63 63 63 63 64 66 65 64 63 62 63 64 64 63 63 59 64
61 68 70 71 71 71 71 70 70 69 69 69 69 69 69 69 70 70 70 68 67 66 64 64 64 63 63 62 62 63 63 63 63 64 61 55 57 61 62 61 62 61 62
61 67 69 70 71 71 70 70 69 69 69 69 68 69 69 69 70 70 69 67 66 66 64 64 63 63 62 62 62 63 63 64 64 60 51 52 53 61 60 60 60 60 61
67 66 69 70 70 70 70 69 69 68 68 68 68 69 69 69 70 70 68 66 66 66 64 63 63 62 62 63 63 62 61 62 62 54 51 51 52 57 59 58 58 59 58
67 68 68 69 69 69 69 69 68 68 67 67 68 69 70 70 70 69 67 66 66 65 63 62 61 61 61 62 61 61 61 61 61 50 50 52 52 57 57 57 57 57 57
66 67 65 64 68 69 69 68 68 67 67 68 68 69 69 70 69 68 66 66 65 64 62 61 60 60 60 60 60 60 59 59 49 49 50 51 52 56 56 56 55 55 55
64 62 62 64 64 68 68 67 67 67 67 67 67 68 69 69 68 67 66 65 64 64 63 61 60 59 59 58 58 56 57 59 51 49 50 50 54 55 55 55 55 55 54
64 62 60 60 61 62 63 64 64 66 66 66 66 66 66 66 65 65 65 65 64 63 62 60 59 59 57 56 55 54 56 57 49 49 49 50 54 54 54 54 54 54 54
63 62 60 59 59 59 60 62 63 65 65 66 65 65 64 64 65 65 64 64 64 62 61 59 58 57 55 54 52 52 54 55 46 49 50 52 54 53 53 53 53 53 53
58 60 60 58 57 57 57 59 61 65 65 64 64 63 61 59 59 59 62 63 62 62 60 58 57 56 53 52 53 52 52 39 41 49 52 57 54 53 53 52 52 51 51
57 58 58 57 58 57 58 55 57 61 62 61 59 59 57 57 59 60 62 62 61 60 59 58 57 55 52 41 42 49 39 39 40 48 51 57 54 53 52 51 50 49 49
56 57 57 58 58 57 57 54 58 59 60 60 60 59 59 59 59 59 58 56 56 55 47 50 51 47 46 44 44 44 41 37 39 38 50 54 55 53 52 50 49 48 47
55 57 57 57 58 58 59 59 60 60 58 57 60 60 59 59 58 57 55 55 53 52 48 50 52 48 45 43 43 41 40 39 39 42 50 51 54 52 52 50 49 47 46
55 56 56 58 58 58 58 59 60 59 57 59 60 60 59 58 58 57 57 54 53 54 53 53 49 46 44 42 41 39 38 37 38 45 51 55 53 53 49 51 47 44 45
55 55 57 57 59 57 59 59 59 58 59 58 60 61 62 59 60 57 58 55 55 54 54 52 50 46 45 42 40 38 37 39 38 45 46 51 54 54 50 46 44 44 43
55 55 56 57 58 57 55 53 53 53 56 58 59 61 61 61 60 59 58 57 55 55 53 53 49 48 44 43 41 40 39 37 37 37 45 47 50 52 52 48 45 43 40
54 55 56 55 54 56 54 50 54 53 55 57 59 60 61 60 60 59 58 57 56 55 53 50 49 46 46 43 42 41 39 38 36 36 38 44 45 45 51 49 44 39 36
53 54 52 53 55 57 57 55 57 57 57 56 58 59 60 60 60 59 59 57 56 55 53 52 50 50 45 42 41 43 42 41 38 35 37 36 38 36 43 48 45 43 39
52 50 49 52 55 56 57 59 57 57 56 56 56 57 59 58 60 60 58 58 55 54 53 51 51 49 47 44 38 40 45 43 42 41 37 37 39 38 35 38 41 40 43
52 53 52 52 56 56 54 54 53 55 54 54 53 56 61 61 62 61 59 58 56 54 52 52 52 50 46 46 44 45 45 45 42 41 41 40 38 39 38 38 37 37 37
52 54 53 54 55 54 54 53 53 53 54 53 55 56 60 61 62 61 61 58 55 54 54 53 51 49 48 48 45 44 41 42 42 42 42 41 40 38 39 38 38 36 37
52 53 52 52 53 54 54 53 52 52 53 52 53 56 60 62 61 61 60 59 56 55 54 54 52 51 46 49 45 43 41 39 39 43 42 41 40 39 38 37 36 38 35
52 53 52 52 51 53 56 54 53 49 47 51 53 54 59 61 61 60 59 59 57 55 53 53 52 50 49 46 46 41 38 39 37 37 39 40 40 38 38 39 37 36 35
52 53 54 54 52 53 54 55 55 53 52 51 54 54 59 60 60 59 59 58 55 55 54 54 51 50 50 48 45 40 41 41 42 39 36 36 37 37 38 41 39 37 34
53 54 54 55 53 54 55 56 57 55 54 52 54 55 59 59 59 59 57 56 55 54 54 55 53 52 51 45 42 40 40 40 38 37 33 33 34 33 34 35 37 35 35

GFSSE_sfc_dewp_069.txt.gz
Dewpoint
68 71 71 72 72 72 71 71 70 69 70 70 70 69 70 70 71 70 70 69 68 68 65 64 64 64 65 65 65 66 66 66 65 65 64 63 63 63 63 63 62 60 64
62 68 69 71 72 72 71 70 70 69 70 70 69 69 69 71 71 70 69 68 67 65 64 64 62 62 64 65 65 66 66 65 64 64 62 61 61 62 62 61 63 61 63
61 63 66 68 71 71 71 70 70 70 70 70 69 69 70 71 70 69 68 67 67 65 64 63 61 61 62 63 64 64 63 64 62 62 60 56 56 61 61 60 61 61 61
63 63 63 64 68 71 70 70 69 70 70 69 69 70 71 70 69 68 67 66 67 65 63 62 61 61 62 62 63 63 63 61 60 58 53 54 55 60 60 59 59 59 60
61 60 59 66 69 71 70 69 69 69 69 69 69 70 70 70 68 67 67 66 66 64 62 61 60 61 61 62 62 62 62 60 59 54 52 53 54 57 58 58 58 59 60
67 67 67 68 69 70 70 69 69 68 68 68 68 69 70 70 68 67 66 66 66 64 62 60 59 59 61 61 61 60 60 59 56 51 51 54 53 57 57 57 57 57 57
65 64 65 65 67 65 69 69 68 68 68 68 68 69 69 69 67 67 66 65 65 63 61 60 59 58 60 60 59 60 60 57 50 50 51 51 53 57 57 56 56 57 56
63 63 64 65 63 63 63 68 67 67 68 68 69 69 69 68 67 66 65 65 64 63 62 60 59 58 58 58 58 58 59 56 51 50 50 51 55 56 56 55 55 55 55
61 61 62 62 62 63 62 65 65 66 67 68 68 68 68 66 66 65 65 65 64 63 61 59 58 59 57 56 56 56 57 57 50 50 50 51 55 55 55 55 55 54 54
62 60 59 60 60 60 61 62 62 62 65 66 66 66 65 65 65 64 64 64 63 62 60 58 58 56 54 53 53 53 55 56 50 50 51 52 54 54 54 54 53 53 53
60 59 58 58 59 59 59 60 61 62 65 64 64 64 63 62 61 61 63 63 63 62 60 58 57 54 52 50 49 51 50 49 51 51 53 56 54 54 53 52 52 52 51
57 58 57 57 57 57 58 59 60 63 63 61 60 58 58 59 60 60 62 62 62 61 60 58 56 54 47 39 41 46 38 48 51 52 54 57 54 54 52 51 50 50 49
57 57 58 57 58 56 54 56 58 61 61 59 58 56 59 59 59 58 58 57 56 56 52 52 49 45 45 42 40 39 38 41 43 47 55 58 54 53 52 51 49 48 48
56 56 57 58 58 56 56 55 59 61 59 59 58 59 58 57 55 55 54 54 50 49 45 47 48 44 41 40 39 38 36 38 40 44 52 56 56 53 52 51 49 48 46
55 56 58 58 57 58 59 60 60 60 57 58 58 59 58 56 54 54 54 53 51 49 46 50 45 44 41 39 38 37 35 37 43 45 47 54 56 54 53 51 49 47 46
56 56 58 58 58 58 58 58 59 60 57 59 58 59 58 57 54 55 55 53 52 52 52 48 46 44 42 40 38 36 37 38 45 47 50 51 54 55 52 49 48 44 44
55 56 57 58 57 56 56 57 58 58 58 58 59 59 58 58 55 56 55 54 54 53 52 49 48 45 43 40 38 38 36 36 38 45 48 49 52 53 53 49 48 45 42
55 55 56 57 55 57 57 56 55 55 56 57 58 59 59 59 58 57 55 55 54 54 52 49 47 45 43 41 39 38 38 38 34 35 46 47 47 47 52 52 47 43 38
54 55 56 56 56 57 55 53 53 54 55 56 57 57 58 59 58 58 56 56 55 53 51 49 47 46 45 42 40 40 39 38 35 34 38 45 45 45 45 51 48 45 40
54 54 54 55 54 55 54 52 55 54 55 55 57 58 58 58 59 58 58 55 53 52 51 51 48 50 46 42 39 40 41 41 38 38 36 37 37 40 43 43 43 42 46
53 52 51 53 52 54 53 52 54 52 53 54 55 57 58 58 59 58 57 56 54 52 51 49 49 49 46 45 43 43 43 43 41 40 38 37 37 37 38 39 38 38 42
49 48 49 50 50 54 54 54 53 53 53 53 53 55 58 58 59 59 57 57 54 53 53 50 49 49 47 46 42 43 41 41 42 40 41 40 39 39 38 37 37 37 36
46 47 47 49 51 54 52 53 52 54 53 52 52 53 59 60 60 60 59 58 55 54 53 51 50 49 47 48 45 44 40 39 39 41 41 42 40 39 38 37 38 36 38
50 50 50 50 53 53 53 52 51 50 51 51 51 53 59 60 61 60 60 59 56 55 54 53 54 53 50 48 45 41 39 40 38 37 39 41 41 38 38 37 37 37 35
50 52 51 51 51 52 53 52 51 50 50 51 52 52 59 60 60 60 59 58 56 56 54 54 54 52 53 51 48 43 44 44 42 38 36 37 38 38 38 38 38 38 35
50 51 51 51 51 51 52 53 53 51 50 49 51 52 57 60 60 59 59 58 56 54 54 53 54 53 51 49 47 45 44 43 42 39 36 35 32 34 35 36 40 37 35

GFSSE_sfc_dewp_072.txt.gz
Dewpoint
69 70 71 72 72 71 71 70 70 70 70 71 71 71 71 70 70 69 69 68 68 67 65 65 67 66 65 65 64 65 65 66 65 65 63 62 63 62 64 64 64 59 62
69 70 71 71 71 71 70 70 70 69 69 70 70 71 70 70 69 69 68 67 67 66 64 64 65 65 65 65 65 65 63 64 64 63 62 61 61 61 62 62 63 62 64
65 69 70 70 71 71 69 70 70 70 69 70 70 71 70 70 69 68 67 67 66 65 62 64 64 64 64 62 62 64 62 62 62 61 60 57 57 61 61 60 62 63 63
64 64 67 66 67 66 70 69 70 70 69 70 70 71 70 69 68 67 67 66 65 64 62 63 64 63 61 61 63 63 61 59 59 58 54 55 55 60 60 59 61 61 62
63 63 64 66 64 68 69 69 69 69 69 70 70 70 69 69 68 67 66 65 65 63 61 63 62 61 60 62 62 62 61 59 58 55 53 53 54 57 58 59 59 59 57
66 64 62 64 65 66 68 69 69 69 69 69 70 69 69 68 68 67 66 65 64 63 60 61 60 59 60 62 62 61 60 58 56 52 53 54 53 57 58 58 57 57 57
65 64 66 64 64 64 64 65 69 68 68 69 69 68 68 68 67 66 66 64 64 62 59 58 58 60 60 62 61 60 58 57 51 51 52 52 53 57 57 57 57 56 56
62 64 65 64 65 63 62 64 68 67 68 69 69 67 67 67 67 66 65 64 64 62 60 58 59 60 59 60 60 59 58 56 51 51 51 52 56 56 57 57 56 55 55
61 62 62 63 63 62 62 64 66 65 67 68 67 66 66 66 65 65 65 64 63 61 60 59 58 58 58 57 60 59 57 55 50 50 50 52 56 56 56 56 55 55 54
59 60 60 60 60 60 60 62 62 62 64 66 66 66 65 65 65 64 64 63 62 61 59 58 57 57 56 57 59 58 57 55 50 50 51 52 55 55 55 54 54 53 53
58 58 60 60 60 59 59 60 60 62 62 65 65 65 63 62 61 60 62 62 62 61 59 57 57 55 53 55 58 57 55 51 51 51 52 57 55 55 54 53 53 52 52
56 57 58 58 58 58 58 58 58 60 62 62 62 61 61 60 60 60 62 62 61 60 58 56 56 54 48 40 44 51 49 51 52 52 53 57 54 54 52 52 51 51 51
57 57 57 58 58 56 56 55 58 61 61 60 59 60 60 60 60 59 58 58 57 56 50 48 45 46 41 40 39 43 47 49 50 53 56 57 55 53 52 50 51 50 49
57 57 57 58 57 57 55 55 58 60 60 59 59 59 58 57 56 55 54 52 49 48 46 45 47 42 40 39 38 39 41 44 47 51 56 57 56 54 53 51 49 48 47
56 57 57 57 55 56 56 57 57 60 58 57 59 58 57 55 54 53 51 49 48 45 48 48 44 41 39 38 37 37 37 39 42 46 50 58 57 54 53 52 50 49 46
56 57 58 57 56 57 57 59 60 58 58 57 59 58 57 54 53 52 50 50 49 46 50 46 44 42 40 39 37 37 39 42 42 45 48 52 57 57 55 52 49 46 46
56 57 57 58 58 58 58 58 58 56 58 57 58 58 57 55 54 53 51 52 51 50 51 47 45 43 41 39 37 36 38 43 44 46 47 49 53 55 54 52 48 47 45
56 57 57 58 57 57 56 57 57 56 58 57 58 58 58 56 55 55 52 53 53 52 51 49 47 45 42 40 38 38 36 37 42 44 46 48 49 49 53 53 50 46 40
55 56 57 56 55 55 54 55 56 55 56 57 58 58 58 57 57 56 54 54 54 53 51 49 47 45 43 41 39 38 38 37 35 39 45 46 47 48 48 53 52 49 42
55 55 57 55 55 55 55 54 55 54 55 56 57 57 58 58 58 56 55 55 54 52 50 48 46 48 45 43 39 39 39 38 37 37 42 45 45 46 46 46 47 44 47
54 55 55 54 54 55 52 52 52 52 53 54 56 56 58 58 58 57 56 55 53 51 50 49 48 47 48 44 42 42 42 42 39 38 37 40 39 38 43 43 42 38 43
53 54 53 54 54 54 52 50 52 52 53 53 54 56 57 57 58 57 57 55 53 51 51 50 49 48 47 46 42 43 41 42 42 41 39 37 37 38 39 40 38 37 38
53 52 50 52 52 52 54 51 53 53 52 52 52 54 57 57 57 58 57 56 54 53 51 50 49 48 47 48 46 45 43 41 40 41 41 41 40 39 39 38 38 37 37
50 50 49 49 48 51 54 50 51 49 50 50 52 52 55 58 58 58 58 57 55 54 52 52 51 50 50 50 49 47 45 44 41 39 39 40 41 40 40 39 38 37 37
48 47 47 48 48 50 53 51 52 51 53 53 52 52 54 58 58 58 59 58 56 55 54 54 53 51 52 51 49 45 45 45 45 42 41 40 40 39 39 39 38 38 37
45 46 47 47 48 51 53 52 52 51 51 51 52 51 54 58 58 59 59 59 58 56 54 55 53 53 52 51 48 46 46 45 44 44 42 40 37 34 35 36 38 39 39

GFSSE_sfc_dewp_075.txt.gz
Dewpoint
69 70 71 71 71 71 71 70 70 70 69 70 70 70 70 70 70 70 69 68 67 67 66 66 66 64 64 64 64 64 65 65 64 61 62 63 64 64 64 62 63 59 63
67 70 71 71 71 70 70 70 70 70 70 70 70 70 70 70 69 69 68 67 67 67 66 65 65 64 64 64 64 63 63 63 64 63 62 62 63 62 63 65 65 62 64
67 69 70 70 71 70 70 70 70 71 71 71 70 70 69 69 69 68 67 67 67 67 65 65 65 65 64 64 63 62 62 62 62 61 60 56 55 61 64 63 63 63 63
65 65 67 67 68 70 70 70 70 70 71 70 70 69 69 69 68 67 66 66 67 67 65 65 64 64 64 64 62 61 61 60 59 58 55 55 55 60 62 61 60 61 61
63 64 66 65 65 66 67 66 67 69 69 70 70 69 69 68 68 67 65 65 66 66 64 63 61 63 64 63 62 60 59 59 58 55 53 54 54 58 60 58 57 58 56
63 63 65 66 65 66 66 67 66 67 68 69 69 69 68 68 67 66 65 64 66 66 62 60 60 63 63 62 61 59 58 58 56 53 53 55 53 59 58 58 56 57 56
64 65 63 65 65 64 65 65 67 67 68 69 69 68 68 68 67 66 64 64 64 64 60 60 63 64 62 61 60 59 58 57 52 52 52 53 54 58 58 57 56 56 56
63 65 63 64 64 63 62 63 64 66 66 68 68 67 67 67 66 65 64 63 63 62 61 61 63 63 61 60 59 59 58 56 52 52 52 52 56 57 57 57 56 55 54
62 63 63 64 63 64 64 64 64 65 66 67 67 66 66 66 65 64 64 63 62 60 60 59 61 62 61 59 59 58 58 56 51 51 52 52 56 57 57 56 55 54 54
60 60 61 62 61 61 61 65 65 65 65 65 65 66 65 65 64 64 63 62 60 59 58 58 58 60 61 60 58 58 57 55 50 51 52 53 56 56 56 55 54 54 53
58 59 60 60 60 60 60 63 63 64 65 64 64 65 63 62 62 60 61 61 60 58 58 57 57 60 60 59 59 58 54 51 51 52 53 57 55 56 55 54 53 53 52
57 58 59 59 59 59 59 58 60 62 63 62 62 62 61 60 60 60 61 60 59 57 57 57 55 55 55 54 55 54 51 51 52 52 54 57 55 55 54 53 53 52 50
57 57 58 58 58 57 57 57 58 61 61 61 61 60 59 60 60 59 58 55 52 51 45 46 43 39 40 45 47 49 51 51 52 53 56 57 54 54 53 53 51 51 49
56 56 57 58 57 56 56 56 58 60 60 60 60 59 59 58 57 56 54 52 48 46 45 45 43 41 39 43 46 47 49 49 51 53 56 57 56 54 52 51 50 49 48
56 56 57 57 56 55 56 57 58 60 60 60 60 58 57 55 54 53 51 48 46 46 47 44 41 40 39 38 40 44 45 47 50 52 54 57 57 54 53 52 51 49 47
56 57 57 56 56 56 56 57 57 60 58 60 59 57 56 54 53 51 49 47 45 47 48 44 41 40 39 38 37 38 39 42 45 48 52 55 57 56 55 52 51 49 47
56 57 57 55 56 56 55 56 58 57 57 57 57 57 55 54 52 50 49 48 47 48 47 44 42 41 39 38 36 39 41 41 40 44 49 51 55 57 56 54 50 47 46
56 57 57 57 56 58 56 57 58 58 57 57 57 56 55 54 53 51 50 50 51 50 48 46 44 42 40 38 37 37 40 43 42 42 45 49 51 51 54 53 52 49 44
56 57 57 57 57 58 58 57 58 57 57 58 57 56 54 54 55 52 51 52 53 52 50 48 46 44 41 40 38 38 37 39 42 43 44 47 49 49 49 54 53 51 45
56 57 57 57 57 57 56 56 56 55 56 58 57 57 57 54 55 55 53 53 53 52 51 49 46 45 43 42 38 37 38 38 37 40 43 46 47 47 47 48 50 48 49
55 56 57 56 56 55 55 54 53 53 55 56 57 57 57 56 56 55 54 54 53 51 51 49 47 46 46 43 41 41 41 41 39 37 39 44 45 46 46 46 46 42 44
54 55 56 54 55 54 53 53 53 53 54 54 56 56 57 57 57 56 55 54 53 51 50 48 47 48 47 44 41 42 39 41 43 41 39 38 42 40 43 43 43 40 37
53 54 54 54 54 54 51 50 52 52 52 53 53 55 56 57 57 56 56 55 53 52 50 49 48 48 46 47 46 44 43 42 41 42 41 40 38 39 39 40 40 38 37
53 53 53 53 53 54 53 49 50 50 49 51 52 53 55 57 56 57 56 55 54 52 51 50 50 49 49 48 48 47 46 46 43 41 40 41 42 41 39 39 39 39 38
53 53 51 51 52 53 52 51 50 49 49 51 51 52 52 56 57 57 57 55 55 54 53 53 52 50 51 51 49 45 45 46 45 43 42 43 42 41 41 41 40 40 38
51 51 50 49 49 50 51 53 50 51 52 52 51 51 52 53 56 57 57 57 56 55 54 53 53 52 51 51 49 47 45 45 45 44 43 43 41 39 36 37 39 40 40

GFSSE_sfc_dewp_078.txt.gz
Dewpoint
67 70 71 71 71 71 71 70 71 71 71 71 71 70 70 71 70 70 70 69 69 68 66 65 66 65 65 64 64 64 65 64 65 65 63 63 63 62 62 62 64 62 64
66 70 70 71 71 71 71 70 70 71 71 71 70 70 70 70 70 69 69 68 68 67 65 65 64 64 65 65 64 64 64 64 64 65 64 63 64 65 64 64 64 62 63
69 70 69 69 70 70 69 70 70 71 71 71 70 70 70 70 69 68 68 68 67 67 65 65 64 64 64 64 63 63 62 62 62 61 60 58 61 64 64 63 62 61 61
67 68 67 69 68 68 67 68 68 70 70 70 70 70 70 69 68 68 68 67 67 67 64 64 65 63 63 63 62 62 61 61 60 59 55 56 59 62 62 61 60 60 58
65 66 66 67 66 66 66 66 67 69 69 70 70 70 69 69 68 68 67 67 67 67 66 66 65 64 62 63 62 61 60 60 59 56 54 55 56 58 59 58 57 57 57
64 64 66 65 65 65 65 65 65 67 68 69 69 69 69 68 67 67 67 66 67 66 63 64 65 63 62 62 61 60 59 59 57 54 54 56 55 58 58 57 57 56 56
64 64 65 65 64 64 65 64 65 65 67 67 68 68 68 67 66 66 66 66 65 63 62 64 63 62 61 61 59 59 58 57 53 53 53 54 55 58 58 57 56 56 55
63 64 64 65 65 65 66 67 66 65 66 67 68 67 67 66 65 65 66 65 63 63 64 65 63 61 60 60 59 59 59 56 53 52 53 54 56 58 57 56 55 55 55
62 64 63 64 64 64 64 65 66 66 66 66 67 67 66 65 64 65 64 63 62 64 65 64 62 61 60 60 59 59 58 56 52 53 52 54 57 57 57 56 55 54 54
60 61 63 63 61 60 63 64 64 65 65 65 66 66 65 65 64 63 62 61 61 63 64 63 61 61 60 60 59 59 58 56 52 52 53 54 57 57 56 56 55 54 54
59 60 61 60 60 60 60 64 64 65 65 65 64 64 63 62 61 59 59 60 59 60 62 63 61 60 59 59 59 58 54 51 52 53 54 58 57 57 56 55 54 54 53
57 59 59 59 59 60 59 62 64 63 63 63 62 62 62 60 58 59 58 59 59 59 60 62 62 60 57 55 55 54 51 52 52 53 54 57 56 56 55 54 53 52 51
57 58 59 58 59 58 57 60 62 61 62 62 61 61 59 59 59 58 55 53 53 54 53 56 57 51 53 52 51 51 51 52 53 54 56 57 56 55 55 54 52 51 50
56 57 58 58 58 57 57 59 61 61 60 60 61 59 59 58 56 56 52 49 46 46 44 43 44 45 48 49 50 51 51 51 52 54 56 57 56 54 54 53 51 50 49
56 57 57 57 56 56 56 58 60 61 60 60 60 58 57 55 54 52 49 46 45 46 43 42 40 43 46 47 48 50 50 51 52 54 55 57 57 54 53 52 51 50 49
56 56 57 56 56 56 57 58 59 60 60 61 59 57 56 54 52 50 46 45 46 47 44 41 40 40 43 43 45 47 48 49 51 53 54 56 57 56 55 53 52 51 49
56 57 56 56 56 56 57 57 58 59 60 60 58 56 55 53 51 48 47 46 47 48 44 42 41 40 39 39 40 41 43 46 49 51 52 54 55 57 56 55 51 50 49
56 57 56 56 56 56 55 56 58 58 59 59 58 56 54 53 51 48 46 47 49 49 46 44 42 41 40 38 38 40 41 42 42 46 49 51 53 54 56 56 55 50 48
56 57 57 57 56 57 57 58 59 59 58 58 58 56 54 54 52 49 48 49 50 50 48 45 45 43 40 39 38 39 41 43 42 41 44 48 51 51 51 54 54 53 49
56 57 57 57 57 58 58 58 58 58 59 58 57 56 54 54 54 51 51 51 52 51 49 47 46 46 43 41 37 37 39 39 40 43 43 44 48 50 49 50 52 51 51
56 57 57 56 57 57 57 56 57 56 57 58 57 56 55 54 54 53 53 52 52 51 50 48 47 46 45 43 41 41 41 41 39 38 40 44 46 48 48 48 49 47 47
55 56 56 56 56 56 55 57 57 54 56 57 57 56 55 55 54 54 53 52 53 51 51 49 47 47 46 44 41 41 38 40 43 41 39 39 43 45 46 47 47 46 42
54 55 55 55 55 55 55 56 54 55 55 54 55 56 56 56 55 55 55 54 53 52 51 49 48 47 46 46 45 43 42 40 42 43 43 40 40 42 43 44 44 44 42
53 53 55 54 54 54 54 54 53 52 52 54 53 54 55 56 56 56 55 55 54 53 51 50 49 48 48 47 47 47 46 46 43 42 42 42 42 39 40 41 40 40 40
52 54 53 54 54 54 52 51 51 51 51 52 52 53 54 55 56 56 56 55 54 53 52 51 50 49 50 49 47 45 45 46 46 44 44 43 43 43 43 42 41 41 40
52 53 52 53 53 54 53 51 50 50 50 50 51 52 52 53 55 56 56 56 55 54 53 52 51 50 50 49 48 47 47 46 45 45 44 44 44 43 39 40 40 41 41

GFSSE_sfc_dewp_084.txt.gz
Dewpoint
65 64 72 72 72 72 72 72 71 71 72 72 72 71 70 71 71 71 71 70 70 69 68 67 68 67 66 66 65 66 67 66 66 67 66 66 66 66 65 66 65 62 65
67 65 71 72 72 72 72 72 71 71 72 72 71 70 70 71 71 71 70 70 69 69 67 67 66 66 65 65 65 67 67 66 65 65 65 65 65 64 63 64 64 61 64
68 67 69 71 71 72 72 72 72 72 72 72 71 70 71 71 71 71 70 69 69 68 66 66 66 64 64 64 65 66 66 66 66 66 65 58 60 62 62 62 62 62 62
67 69 69 71 71 71 71 71 71 72 72 71 71 71 71 71 71 70 69 68 68 68 65 66 66 65 64 64 64 63 63 63 65 64 58 57 57 61 61 61 61 61 60
65 68 68 70 70 71 71 71 69 69 71 70 70 71 71 71 70 69 68 67 67 67 66 66 65 65 64 64 64 63 62 62 63 59 53 55 55 58 59 59 59 59 60
63 67 69 69 69 70 70 69 68 69 68 68 69 69 70 70 70 69 67 67 67 67 65 64 64 64 64 64 63 62 62 62 62 52 54 56 54 58 59 59 58 58 58
64 67 69 67 68 69 68 67 68 69 68 67 68 69 69 69 69 68 67 66 66 66 65 63 63 63 63 63 62 61 61 61 51 50 51 53 56 59 59 58 57 57 57
64 67 67 66 67 67 67 67 66 67 67 67 67 68 68 68 68 67 66 66 66 66 65 64 63 62 62 61 60 60 60 59 51 50 51 53 58 58 58 57 57 56 56
65 66 66 67 66 65 66 65 66 67 67 67 67 67 67 67 67 67 67 67 67 65 64 63 63 62 61 60 60 60 59 60 50 51 50 53 57 58 57 57 56 56 56
63 64 65 65 66 65 66 66 65 66 65 66 66 66 66 66 66 65 65 66 66 65 64 63 62 61 60 61 60 59 59 59 50 50 50 53 58 57 57 57 56 56 55
62 63 65 65 64 64 65 65 65 65 65 65 64 65 64 64 64 63 63 65 65 64 63 63 62 61 60 60 60 59 58 50 50 49 51 59 58 57 57 56 56 55 55
60 61 63 62 62 63 63 64 64 66 65 65 64 65 63 64 62 61 63 65 64 63 62 62 62 60 57 52 54 56 49 51 50 50 52 59 58 57 56 56 55 54 53
59 60 60 61 62 62 62 64 64 67 66 65 64 64 64 63 62 62 63 63 62 59 55 57 56 51 51 49 50 49 51 51 50 50 55 59 57 57 56 55 54 53 53
58 59 60 60 60 60 62 63 64 64 66 66 62 63 62 60 59 60 60 60 59 55 55 54 52 53 52 50 50 51 51 49 49 50 55 59 58 56 55 54 53 52 51
57 58 59 59 58 59 60 63 63 65 64 63 61 62 61 59 56 57 59 59 58 57 56 54 53 52 51 49 50 51 50 50 51 49 52 58 58 56 55 54 52 51 49
56 58 59 58 58 59 60 61 61 63 62 60 60 60 59 59 55 53 54 55 57 58 56 54 53 51 48 47 48 50 50 50 51 51 50 53 57 58 56 53 52 51 49
56 58 58 58 58 58 60 60 60 61 60 59 59 58 57 56 55 53 50 51 52 54 56 53 53 49 47 45 47 48 49 51 50 51 50 51 53 57 56 55 52 51 50
56 57 58 57 57 58 59 60 60 60 59 59 58 57 55 54 52 50 49 50 50 51 52 51 49 48 47 45 46 46 47 49 51 51 51 51 50 49 55 57 56 53 52
55 57 58 57 57 58 60 60 59 60 59 59 57 55 53 52 51 49 50 50 49 48 49 47 46 47 45 44 44 44 45 47 50 48 50 52 53 51 50 56 57 56 55
56 58 58 57 57 58 60 59 59 59 59 59 56 52 51 49 51 51 49 51 47 45 46 45 46 45 44 42 35 39 43 44 46 48 49 49 50 52 52 51 52 50 55
56 57 57 56 57 59 58 58 58 57 58 58 56 55 54 48 49 50 49 50 48 47 49 51 48 48 44 44 40 41 42 45 46 44 44 46 49 50 52 51 51 49 50
55 57 57 56 56 57 58 59 58 58 58 57 56 55 54 54 49 49 51 51 51 51 53 52 52 49 47 46 45 47 45 44 43 44 43 44 47 44 48 53 53 52 51
55 56 57 56 56 57 58 58 58 57 58 57 57 55 54 54 51 50 52 53 54 53 53 54 53 52 48 49 49 48 48 48 48 46 46 44 46 46 44 46 50 50 51
55 55 57 57 56 56 57 57 56 54 54 55 55 55 55 55 54 50 52 53 55 53 53 55 53 53 53 50 49 48 52 52 47 49 48 48 46 44 47 45 45 47 50
54 54 56 57 56 56 57 57 57 55 54 56 54 53 53 56 56 53 53 54 55 53 55 55 55 55 53 53 52 51 51 51 52 50 49 49 49 49 49 47 46 47 49
54 54 56 56 56 56 56 57 57 56 55 55 53 52 49 52 53 56 53 55 55 54 55 56 57 57 56 55 54 54 53 51 50 51 50 51 52 51 49 49 49 48 46

GFSSE_sfc_dewp_087.txt.gz
Dewpoint
63 67 71 71 72 73 73 72 72 72 72 72 72 71 71 71 71 71 70 70 70 70 68 67 68 68 68 67 66 68 68 68 68 68 67 66 66 66 66 67 66 63 67
65 66 71 72 72 72 73 72 72 72 72 72 72 71 71 71 71 70 70 70 70 69 67 67 67 67 66 66 67 67 67 67 67 67 67 65 65 65 65 65 65 63 65
66 66 69 71 71 72 73 72 72 72 72 72 71 71 71 71 71 70 70 70 69 69 67 67 66 66 66 66 67 67 66 66 66 66 65 59 60 64 64 64 64 63 64
67 69 68 71 71 72 72 71 71 72 72 72 71 71 71 71 71 70 70 69 69 69 67 65 65 65 65 65 66 66 66 66 65 64 58 57 58 62 62 62 62 62 62
65 67 69 70 70 71 71 70 70 70 70 70 70 71 71 71 71 70 69 68 68 68 66 65 65 65 65 65 65 65 65 65 64 58 54 55 56 59 60 60 60 60 61
62 66 69 69 70 71 70 69 69 68 68 68 70 70 70 70 70 69 68 67 68 68 67 66 65 65 65 64 64 64 63 63 63 52 52 56 55 60 60 60 59 59 60
63 66 69 68 69 70 71 69 67 66 67 66 65 68 68 69 69 68 67 67 67 67 67 65 65 64 64 64 63 62 62 61 50 51 51 53 56 59 59 59 59 58 58
63 65 68 68 67 67 69 68 66 67 65 65 66 67 67 68 67 67 67 66 66 65 65 65 64 63 63 62 61 60 59 60 51 50 51 54 59 58 59 58 58 57 57
64 65 67 69 67 65 66 66 66 66 66 66 66 65 64 66 66 66 66 66 66 65 65 64 64 63 62 62 61 60 59 60 49 50 51 53 58 58 58 57 57 57 57
62 64 65 67 68 67 66 65 65 65 65 64 65 65 65 66 66 66 66 66 66 65 64 63 63 62 62 61 60 59 58 59 49 49 50 54 58 58 58 57 57 56 56
62 62 65 65 66 66 66 65 65 65 65 64 65 64 61 65 64 65 64 65 65 64 63 62 62 61 61 60 59 59 60 48 48 48 51 59 58 57 57 57 56 56 55
59 61 63 65 64 65 63 65 65 65 65 65 65 65 65 65 65 64 65 64 64 63 63 62 61 60 56 52 52 56 52 50 48 50 53 59 57 57 57 56 56 55 55
57 59 61 63 63 64 65 64 64 66 66 65 65 65 64 64 64 65 65 63 62 61 57 56 55 49 50 49 51 52 51 51 49 50 55 59 57 57 56 55 55 54 54
58 58 60 61 61 62 62 63 65 66 66 65 64 63 64 63 63 64 63 60 58 56 55 53 50 54 52 49 50 51 51 49 49 51 55 59 59 56 56 55 54 54 53
56 58 59 61 60 61 61 63 64 65 66 65 64 64 64 63 62 62 61 58 55 56 55 53 52 50 50 50 50 50 50 50 51 50 53 59 58 57 55 55 54 52 52
54 58 58 59 60 60 60 61 63 64 65 64 63 63 62 61 61 61 60 57 57 56 55 54 53 50 48 48 50 50 49 50 50 52 52 55 58 58 56 54 52 51 50
54 57 59 59 59 59 61 61 61 63 63 62 60 60 59 59 59 60 60 59 59 58 58 57 54 50 46 46 48 49 49 50 50 51 51 52 54 57 57 56 53 51 50
53 57 57 58 58 59 60 60 61 60 60 59 59 59 58 57 56 57 57 58 59 59 56 55 53 49 48 46 48 48 48 49 51 51 50 51 51 50 55 57 56 54 52
54 56 57 58 57 59 60 60 59 59 58 58 57 57 56 56 56 54 54 54 57 55 55 54 53 53 50 46 45 46 48 48 50 48 50 51 52 51 50 56 57 56 56
54 56 58 58 58 59 60 59 58 57 57 57 56 55 55 54 54 53 52 53 52 51 53 51 52 51 50 47 40 43 46 47 49 49 49 49 51 52 52 53 53 52 56
55 56 57 57 58 59 58 57 56 56 56 56 55 56 55 54 52 52 50 51 49 48 49 52 52 52 48 47 41 42 44 46 47 47 49 49 49 51 52 51 53 51 53
55 56 56 57 57 58 58 57 56 56 55 55 54 53 51 52 50 51 52 50 51 49 52 53 53 49 46 49 44 45 45 44 45 46 46 47 52 49 50 52 53 53 52
55 55 55 56 56 58 59 58 57 56 57 56 55 52 51 50 48 50 55 52 54 54 54 56 55 53 49 49 51 49 49 49 51 47 50 47 51 49 49 49 51 51 53
56 55 56 56 56 57 59 57 55 53 52 53 52 50 53 54 52 50 54 56 55 55 55 56 54 55 54 50 50 49 53 52 50 51 50 50 50 49 52 48 48 50 50
56 55 56 57 56 56 58 57 57 54 52 52 52 52 53 56 56 53 52 56 56 55 57 58 57 56 54 52 51 51 52 51 54 50 46 51 50 49 48 49 50 48 49
55 56 56 56 56 56 57 57 56 55 53 54 52 52 54 54 55 55 52 56 56 57 57 57 58 57 57 57 55 55 52 50 49 50 50 51 53 54 54 55 54 52 51